Regional Weather Roundup
Issued by NWS

Home | Current Version | Previous Version | Graphics & Text | Print | Product List | Glossary Off
Versions: 1 2 3 4 5 6 7 8 9 10 11 12 13 14 15 16 17 18 19 20 21 22 23 24 25 26 27 28 29 30 31 32 33 34 35 36 37 38 39 40 41 42 43 44 45 46 47 48

000
ASUS43 KDMX 041507
RWRIA

WEATHER ROUNDUP FOR IOWA
NATIONAL WEATHER SERVICE DES MOINES IA
1000 AM CDT SAT JUL 04 2015

NOTE: "FAIR" INDICATES FEW OR NO CLOUDS BELOW 12,000 FEET WITH NO
SIGNIFICANT WEATHER AND/OR OBSTRUCTIONS TO VISIBILITY.

* - THESE STATIONS ARE NOT NWS STATIONS...THUS NOT UNDER NWS
QUALITY CONTROL.  THEY ALSO DO NOT REPORT WEATHER SUCH
AS PRECIPITATION OR FOG.

IAZ001>003-012>014-020>022-031>034-043>046-041600-
   NORTHWEST IOWA

CITY           SKY/WX    TMP DP  RH WIND       PRES   REMARKS
CARROLL *      SUNNY     72  59  64 SW7       30.01S
CHEROKEE *     SUNNY     70  66  88 SW3       29.99F
DENISON *      SUNNY     70  61  73 VRB3      30.00S
LE MARS *      SUNNY     70  66  88 SW7       29.99S
ORANGE CITY *  SUNNY     68  61  77 S6        29.99S
SHELDON *      SUNNY     72  72 100 SW7       29.98S
SIOUX CITY     SUNNY     70  63  78 S5        29.98S
SPENCER        SUNNY     74  61  63 W8        29.99F
STORM LAKE *   SUNNY     72  63  73 SW7       30.01S
$$

IAZ055>058-069>071-079>083-090>094-041600-
   SOUTHWEST IOWA

CITY           SKY/WX    TMP DP  RH WIND       PRES   REMARKS
ATLANTIC *     SUNNY     70  61  73 SW6       30.03S
AUDUBON *      SUNNY     72  61  68 S5        30.03S
CLARINDA *     SUNNY     72  63  73 SW5       30.05S
COUNCIL BLFS * SUNNY     72  59  64 S6        30.02S
CRESTON *      SUNNY     72  61  68 SW6       30.04S
HARLAN  *      SUNNY     68  63  83 S6        30.05S
LAMONI         SUNNY     73  60  63 SW5       30.04R
RED OAK *      SUNNY     72  63  73 S3        30.03S
SHENANDOAH *   SUNNY     73  63  68 S7        30.03S
$$

IAZ047>049-059>061-072>074-084-041600-
   CENTRAL IOWA

CITY           SKY/WX    TMP DP  RH WIND       PRES   REMARKS
AMES           SUNNY     72  60  66 SW5       30.01S
ANKENY *       SUNNY     73  61  64 CALM      30.02S
CHARITON *     SUNNY     72  61  68 CALM      30.03F
DES MOINES     MOSUNNY   73  61  65 SW3       30.02R
GRINNELL*      SUNNY     72  59  64 W3        30.04R
KNOXVILLE *    SUNNY     70  61  73 SW5       30.02S
MARSHALLTOWN   SUNNY     71  61  70 SW5       30.02R
PELLA *        SUNNY     73  63  68 SW5       30.04S
PERRY *          N/A     72  61  68 CALM      30.02S
$$

IAZ004>006-015-016-023>025-035-036-041600-
   NORTH CENTRAL IOWA

CITY           SKY/WX    TMP DP  RH WIND       PRES   REMARKS
ALGONA *       SUNNY     72  61  68 SW7       30.00S
CLARION *      SUNNY     72  59  64 SW6       30.00F
ESTHERVILLE    SUNNY     71  61  70 SW6       29.99S
FORT DODGE *   SUNNY     72  59  64 SW5       30.01F
MASON CITY     SUNNY     73  60  63 W8        30.01S
FOREST CITY *  SUNNY     70  59  68 SW3       30.00S
IOWA FALLS *     N/A     72  59  64 SW3       30.02S
$$

IAZ007>011-017>019-026>030-037>042-050>054-066-041600-
   NORTHEAST IOWA

CITY           SKY/WX    TMP DP  RH WIND       PRES   REMARKS
CEDAR RAPIDS   SUNNY     71  63  75 W6        30.01S
CHARLES CITY * SUNNY     72  64  78 W6        30.01S
CLINTON *      SUNNY     72  61  68 W5        30.05R
DECORAH *        N/A    N/A N/A N/A MISG        N/A
DUBUQUE        SUNNY     74  61  63 W6        30.01S
MONTICELLO *   SUNNY     72  64  78 W5        30.01R
OELWEIN *      SUNNY     70  61  73 CALM      30.02R
WATERLOO       SUNNY     72  58  61 CALM      30.00R
$$

IAZ064-065-067-068-078-041600-
   EAST CENTRAL IOWA

CITY           SKY/WX    TMP DP  RH WIND       PRES   REMARKS
DAVENPORT      SUNNY     72  58  61 W5        30.03R
IOWA CITY      SUNNY     73  60  63 W5        30.03R
MT. PLEASANT * SUNNY     75  57  53 CALM      30.03S
MUSCATINE *    SUNNY     73  59  60 VRB3      30.03R
QUAD CITIES    SUNNY     75  58  55 NW3       30.02R
$$

IAZ062-063-075>077-085>089-095>099-041600-
   SOUTHEAST IOWA

CITY           SKY/WX    TMP DP  RH WIND       PRES   REMARKS
BURLINGTON     SUNNY     72  64  76 SW5       30.03R
FAIRFIELD *    SUNNY     72  59  64 CALM      30.03S
FORT MADISON * SUNNY     73  63  68 CALM      30.04S
KEOKUK *       SUNNY     73  63  68 CALM      30.03S
OSKALOOSA *      N/A     70  61  73 CALM      30.04S
CENTERVILLE *  SUNNY     72  61  68 S3        30.05S
OTTUMWA        SUNNY     71  61  70 SW3       30.02R
WASHINGTON *   SUNNY     72  61  68 CALM      30.04S
$$

ABBREVIATIONS USED IN REMARKS
   TC - TEMPERATURES IN CELSIUS
  WCI - WIND CHILL INDEX
   HX - HEAT INDEX
  VSB - VISIBILITY
$$




USA.gov is the U.S. government's official web portal to all federal, state and local government web resources and services.